Weather in Kostrzyn nad Odra

Poland     52°35′35″N   14°39′53″E
temp.,
°C
wind,
m/s
gust,
m/s
humid.,
%
clouds,
%
prec.,
mm/h
press.,
hPa
HPBL,
m
8 august, mon
mon823:00+17se11435 0.0 102311
02:00+15e22505 0.0 102312
05:00+13s12575 0.0 102312
08:00+19wsw11425 0.0 1024219
11:00+25nne01295 0.0 10241504
14:00+28ne11247 0.0 10232561
17:00+27ne222482 0.0 10222810
20:00+23nne5939100 0.0 1023350
9 august, tue
tue923:00+21ne384499 0.0 1024287
02:00+19ene2349100 0.0 102595
05:00+19se0151100 0.0 102521
08:00+19n115095 0.0 102675
11:00+24e213647 0.0 1026840
14:00+28e232781 0.0 10252884
17:00+28n322699 0.0 10242814
20:00+24ene233796 0.0 102575
10 august, wed
wed1023:00+19ne485495 0.0 1026166
02:00+17ene2259100 0.0 102634
05:00+15ese11630 0.0 102612
08:00+20ene11488 0.0 1026229
11:00+27ene213396 0.0 10261095
14:00+30nne1125100 0.0 10242682
17:00+30ne322340 0.0 10232857
20:00+25ne343247 0.0 102351
11 august, thu
thu1123:00+20ne4105194 0.0 1024240
02:00+17ese225917 0.0 102328
05:00+16sse22585 0.0 102318
08:00+22sse24445 0.0 1024273
11:00+28se33265 0.0 10231702
14:00+30ese442263 0.0 10222842
17:00+30ese3421100 0.0 10212970
20:00+25se343194 0.0 102168
12 august, fri
fri1223:00+20se48403 0.0 1022134
02:00+18se23530 0.0 102226
05:00+16ese22550 0.0 102228
08:00+21e46420 0.0 1022278
11:00+27e57350 0.0 10211561
14:00+31e683079 0.0 10182976
17:00+28ese253823 0.0 1018670
20:00+26ese9134692 0.1 1018794